Tracking 27423 objects as of 8-Jun-2023
HD Live streaming from Space Station
objects crossing your sky now

FENGYUN 1C DEB

Track FENGYUN 1C DEB now!
10-day predictions


NORAD ID: 30637
Int'l Code: 1999-025ANU
Perigee: 569.2 km
Apogee: 652.7 km
Inclination: 98.9 °
Period: 96.8 minutes
Semi major axis: 6981 km
RCS: 0.039 m2 (small)
Launch date: May 10, 1999
Source: People's Republic of China (PRC)
Launch site: Taiyaun Space Center, China (TSC)

Note: This is SATELLITE DEBRIS
Your satellite tracking list
Your tracking list is empty




NASA's NSSDC Master Catalog

Two Line Element Set (TLE):
1 30637U 99025ANU 23159.33632049  .00030684  00000-0  32203-2 0  9997
2 30637  98.9130 283.5607 0059813 210.3765 208.7252 14.88110425867250
Source of the keplerian elements: AFSPC